Погода в Хухорево

Россия / Республика Мордовия     54°57′54″N   45°50′26″E
темп.,
°C
ветер,
м/с
пор.,
м/с
влажн.,
%
обл.,
%
осадки,
мм/ч
давл.,
гПа
погр.,
м
22 апреля, чт
чт2200:00+6юз51087100 0.1 1017785
03:00+5ююз4988100 0.1 1019414
06:00+5ююв4792100 0.0 1020213
09:00+8ю61084100 0.1 1020774
12:00+11ююз71168100 0.9 10201462
15:00+13зюз595162 1.7 10201978
18:00+11з366586 0.1 1021309
21:00+7зюз11801 0.1 102312
23 апреля, пт
пт2300:00+6ю11831 0.0 102310
03:00+5ююв22845 0.0 102319
06:00+6ююв37826 0.0 1023134
09:00+12ю46579 0.0 1023480
12:00+15ююв334587 0.0 10221994
15:00+15ююв3444100 0.0 10211888
18:00+13вюв376363 0.0 1020250
21:00+10вюв497563 0.0 1020261
24 апреля, сб
сб2400:00+8юв389175 0.4 1018194
03:00+7юв359172 0.4 101793
06:00+7вюв378986 0.0 1015196
09:00+11юв466712 0.0 1013744
12:00+14юв455257 0.0 10101560
15:00+14ю4656100 0.8 10081295
18:00+12ююв5869100 1.9 1007358
21:00+9юз4885100 4.6 1005501
25 апреля, вс
вс2500:00+4з61196100 1.3 1007657
03:00+4зюз5118745 1.4 1007780
06:00+4зюз512835 0.0 1008551
09:00+7зюз711595 0.0 10091435
12:00+8зюз8125097 0.4 10102371
15:00+9зюз71145100 0.4 10112423
18:00+8зюз695410 0.0 10111253
21:00+5зюз5116968 0.1 1013494
26 апреля, пн
пн2600:00+3юз410755 0.0 1014335
03:00+2юз398547 0.0 1014314
06:00+2юз39810 0.0 1014311
09:00+6юз675493 0.0 10141244
12:00+7ююз5660100 0.1 10131384
15:00+7ююз5667100 0.3 10121005
18:00+7зюз3566100 0.4 1011941
21:00+4юз387931 0.4 1011221